Tracking 28531 objects as of 26-Feb-2024
HD Live streaming from Space Station
objects crossing your sky now

EAGLESAT-1

Track EAGLESAT-1 now!
10-day predictions
EAGLESAT-1 is classified as:


NORAD ID: 43018
Int'l Code: 2017-073F
Perigee: 441.1 km
Apogee: 701.6 km
Inclination: 97.6 °
Period: 95.9 minutes
Semi major axis: 6942 km
RCS: Unknown
Launch date: November 18, 2017
Source: United States (US)
Launch site: AIR FORCE WESTERN TEST RANGE (AFWTR)

Uplink (MHz):
Downlink (MHz): 437.645
Beacon (MHz):
Mode: 1200bps AFSK
Call sign:
Status: Inactive

Your satellite tracking list
Your tracking list is empty




NASA's NSSDC Master Catalog

Two Line Element Set (TLE):
1 43018U 17073F   24057.17854667  .00022691  00000-0  12235-2 0  9991
2 43018  97.6052 303.7226 0187607 285.7886  72.2722 15.00868562339269
Source of the keplerian elements: AFSPC